This is the latest recevied weather packets stored in our database for station/object W3BRL. If no packets are shown the sender has not sent any weather packets the latest 10 day(s).
| Time | Temp. | Humidity | Pressure | Rain* | Wind** | Luminosity | Snow |
|---|---|---|---|---|---|---|---|
| 1777893389 | 10° C | 55% | 1008.9 hPa | 0 mm | - | 98 W/m² | - |
| 1777893086 | 9.44° C | 55% | 1009 hPa | 0 mm | - | 82 W/m² | - |
| 1777892783 | 9.44° C | 55% | 1009.1 hPa | 0 mm | - | 64 W/m² | - |
| 1777892479 | 9.44° C | 55% | 1009.1 hPa | 0 mm | - | 45 W/m² | - |
| 1777892175 | 9.44° C | 55% | 1009 hPa | 0 mm | - | 38 W/m² | - |
| 1777891872 | 9.44° C | 55% | 1009 hPa | 0 mm | - | 32 W/m² | - |
| 1777891570 | 9.44° C | 55% | 1009.1 hPa | 0 mm | - | 24 W/m² | - |
| 1777891266 | 9.44° C | 55% | 1009.2 hPa | 0 mm | - | 19 W/m² | - |
| 1777890966 | 9.44° C | 55% | 1009.1 hPa | 0 mm | - | 14 W/m² | - |
| 1777890660 | 9.44° C | 55% | 1009 hPa | 0 mm | - | 11 W/m² | - |
| 1777890356 | 9.44° C | 54% | 1009.2 hPa | 0 mm | - | 7 W/m² | - |
| 1777890053 | 9.44° C | 54% | 1009.1 hPa | 0 mm | - | 5 W/m² | - |
| 1777889750 | 9.44° C | 54% | 1009.2 hPa | 0 mm | - | 3 W/m² | - |
| 1777889448 | 8.89° C | 54% | 1009 hPa | 0 mm | - | 2 W/m² | - |
| 1777889145 | 8.89° C | 54% | 1009.2 hPa | 0 mm | - | 1 W/m² | - |
| 1777888843 | 8.89° C | 54% | 1009.2 hPa | 0 mm | - | 0 W/m² | - |
| 1777888539 | 9.44° C | 53% | 1009.3 hPa | 0 mm | - | 0 W/m² | - |
| 1777888235 | 9.44° C | 53% | 1009.2 hPa | 0 mm | - | 0 W/m² | - |
| 1777887932 | 9.44° C | 53% | 1009.1 hPa | 0 mm | - | 0 W/m² | - |
| 1777887630 | 9.44° C | 53% | 1009.4 hPa | 0 mm | - | 0 W/m² | - |
| 1777887326 | 9.44° C | 53% | 1009.4 hPa | 0 mm | - | 0 W/m² | - |
| 1777887021 | 9.44° C | 53% | 1009.3 hPa | 0 mm | - | 0 W/m² | - |
| 1777886717 | 9.44° C | 54% | 1009.4 hPa | 0 mm | - | 0 W/m² | - |
| 1777886414 | 8.89° C | 54% | 1009.4 hPa | 0 mm | - | 0 W/m² | - |
| 1777886112 | 9.44° C | 54% | 1009.6 hPa | 0 mm | - | 0 W/m² | - |
* Rain latest hour (hover to see other rain measurements)
** Current wind speed in m/s (hover to see current wind gust speed)